User: anonymous
Location: Oshawa
(43.9000°N, 78.8670°W)
Time: 22:11:37
(UTC-04:00)
Language:

Thor Agena Rocket - Orbit

View from above orbital plane
View from above orbital plane
View from above satellite
View from above satellite

Ground track
Ground track

The orbit data is extracted from the following two-line orbital elements,

1 00733U 64002A   14263.94366729  .00000242  00000-0  10762-3 0  3381
2 00733 099.0172 027.0668 0033976 204.1112 294.4600 14.31899045639143
Epoch (UTC): 20 September 2014 22:38:52
Eccentricity: 0.0033976
inclination: 99.0172°
perigee height: 761 km
apogee height: 810 km
right ascension of ascending node: 27.0668°
argument of perigee: 204.1112°
revolutions per day: 14.31899045
mean anomaly at epoch: 294.4600°
orbit number at epoch: 63914

The dashed part of the orbit path shows where the satellite is in the earth's shadow,  

DLR